Skip Navigation Links weather.gov 
NOAA logo-Select to go to the NOAA homepage NDBC Title GraphicClick to go to NDBC home page   Select to go to the NWS homepage
Home About Us Contact Us
 
 
    
    Station List

 Data Access
    Mobile Access
    Classic Maps
         Recent
         DART®
    Obs Search
    Ship Obs Report
    BuoyCAMs
    TAO
    DODS
    OceanSITES
    HF Radar
    OSMC
    Dial-A-Buoy
    RSS Feeds Image indicating link to RSS feed access page
    Web Widget
    Web Data Guide
    Maintenance Schedule
    Station Status Report

 Program Info
    TAO
    DART®
    IOOS®

 Publications
    NDBC PEA
    NDBC FONSI
    NDBC DQC Handbook

 Visitor Information
 
USA.gov is the U.S. government's official web portal to all federal, state and local government web resources and services.

Station YKRV2 - 8637611 - York River East Rear Range Light, VA Image indicating link to RSS feed of recent meteorological observations for station YKRV2

Large icon indicates selected station.
yellow diamond Stations with recent data
red diamond Stations with no data in last 8 hours
     (24 hours for tsunami stations)


Conditions at YKRV2 as of
(5:30 pm EST)
2230 GMT on 12/05/2019:
     

Click on the graph icon in the table below to see a time series plot of the last five days of that observation.

5-day plot - Wind Direction Wind Direction (WDIR): WNW ( 300 deg true )
5-day plot - Wind Speed Wind Speed (WSPD): 6 kts
5-day plot - Wind Gust Wind Gust (GST): 7 kts
5-day plot - Atmospheric Pressure Atmospheric Pressure (PRES): 30.09 in
5-day plot - Air Temperature Air Temperature (ATMP): 49.6 °F
5-day plot - Wind Chill Wind Chill (CHILL): 46.8 °F
5-day plot - Wind Speed at 10 Meters Wind Speed at 10 meters (WSPD10M): 6 kts
5-day plot - Wind Speed at 10 Meters Wind Speed at 20 meters (WSPD20M): 8 kts
5-day plot - Wind Speed, Wind Gust and Atmospheric Pressure Combined plot of Wind Speed, Gust, and Air Pressure
NOS Water Level Observation Network Water Level
Previous observations
5-day plot - Wind Direction 5-day plot - Wind Speed 5-day plot - Wind Gust 5-day plot - Wave Height 5-day plot - Dominant Wave Period 5-day plot - Average Period 5-day plot - Mean Wave Direction 5-day plot - Atmospheric Pressure 5-day plot - Pressure Tendency 5-day plot - Air Temperature 5-day plot - Water Temperature 5-day plot - Dew Point 5-day plot - Salinity 5-day plot - Visibility 5-day plot - Tide (above MLLW)
MM DD TIME
(EST)
WDIR WSPD
kts
GST
kts
WVHT
ft
DPD
sec
APD
sec
MWD PRES
in
PTDY
in
ATMP
°F
WTMP
°F
DEWP
°F
SAL
psu
VIS
nmi
TIDE
ft
1205 5:24 pmWNW 7 8----30.09- 50.0-----
1205 5:18 pmWNW 9 9----30.08- 50.2-----
1205 5:12 pm NW 9 10----30.08- 50.4-----
1205 5:06 pmWNW 10 11----30.07- 50.5-----
1205 5:00 pmWNW 9 10----30.07+0.07 50.5-----
1205 4:54 pmWNW 9 10----30.07- 50.5-----
1205 4:48 pmWNW 8 9----30.07- 50.5-----
1205 4:42 pmWNW 8 9----30.06- 50.5-----
1205 4:36 pmWNW 9 10----30.06- 50.5-----
1205 4:30 pmWNW 11 12----30.05- 50.5-----
1205 4:24 pmWNW 11 14----30.05- 50.5-----
1205 4:18 pmWNW 13 15----30.05- 50.7-----
1205 4:12 pmWNW 12 14----30.04- 50.5-----
1205 4:06 pmWNW 10 13----30.05- 50.5-----
1205 4:00 pm W 8 11----30.04+0.05 50.5-----
1205 3:54 pmWNW 9 12----30.04- 50.5-----
1205 3:48 pmWNW 12 14----30.04- 50.5-----
1205 3:42 pm W 13 15----30.03- 50.4-----
1205 3:36 pmWNW 12 13----30.03- 50.2-----
1205 3:30 pmWNW 14 16----30.03- 50.2-----
1205 3:24 pmWNW 14 16----30.02- 50.0-----
1205 3:18 pmWNW 13 15----30.02- 50.0-----
1205 3:12 pmWNW 15 18----30.02- 50.0-----
1205 3:06 pmWNW 15 18----30.03- 50.0-----
1205 3:00 pmWNW 17 20----30.02+0.01 49.8-----
1205 2:54 pm NW 16 20----30.03- 49.8-----
1205 2:48 pmWNW 15 18----30.02- 49.6-----
1205 2:42 pmWNW 11 14----30.02- 49.5-----
1205 2:36 pmWNW 16 19----30.01- 49.5-----
1205 2:30 pmWNW 16 19----30.01- 49.3-----
1205 2:24 pmWNW 14 18----30.01- 49.1-----
1205 2:18 pmWNW 18 20----30.00- 49.1-----
1205 2:12 pmWNW 17 19----29.99- 49.1-----
1205 2:06 pmWNW 17 18----29.99- 48.7-----
1205 2:00 pmWNW 15 22----30.00-0.02 48.9-----
1205 1:54 pmWNW 17 20----30.00- 48.7-----
1205 1:42 pmWNW 13 16----30.00- 48.7-----
1205 1:36 pmWNW 12 15----30.00- 48.7-----
1205 1:30 pm W 14 18----29.99- 48.6-----
1205 1:24 pmWNW 14 16----30.00- 48.2-----
1205 1:18 pm W 15 18----30.00- 48.2-----
1205 1:12 pm NW 13 16----30.00- 48.0-----
1205 1:06 pmWNW 16 20----30.00- 47.8-----
1205 1:00 pmWNW 16 18----29.99-0.03 47.8-----
120512:54 pmWNW 15 18----30.00- 47.7-----
120512:48 pmWNW 11 14----30.00- 47.7-----
120512:42 pm W 13 16----30.00- 47.5-----
120512:36 pmWNW 15 19----30.00- 47.5-----
120512:30 pmWNW 17 22----30.00- 47.3-----
120512:24 pm NW 15 22----30.01- 47.1-----
120512:18 pmWNW 12 14----30.00- 46.9-----
120512:12 pmWNW 14 20----30.00- 46.9-----
120512:06 pm NW 10 14----30.01- 46.6-----
120512:00 pm NW 11 16----30.01+0.01 46.6-----
120511:54 amWNW 12 17----30.01- 46.4-----
120511:48 am NW 14 17----30.02- 46.2-----
120511:42 am NW 13 15----30.02- 46.0-----
120511:36 am NW 14 19----30.02- 46.0-----
120511:30 am NW 14 17----30.02- 45.9-----
120511:24 am NW 14 17----30.02- 45.5-----
120511:18 am NW 10 13----30.02- 45.7-----
120511:12 am NW 9 12----30.02- 45.7-----
120511:06 am NW 12 14----30.02- 45.5-----
120511:00 am NW 13 15----30.02+0.06 45.5-----
120510:54 am NW 13 17----30.02- 45.5-----
120510:48 amNNW 15 17----30.03- 45.3-----
120510:42 amNNW 15 18----30.03- 45.3-----
120510:36 am NW 14 17----30.03- 45.3-----
120510:30 amNNW 14 17----30.03- 45.1-----
120510:24 am NW 12 16----30.03- 45.1-----
120510:18 amNNW 16 19----30.03- 45.0-----
120510:12 am NW 16 19----30.03- 45.1-----
120510:06 amNNW 16 18----30.02- 45.0-----
120510:00 amNNW 17 20----30.03+0.12 44.6-----
1205 9:54 amNNW 17 20----30.02- 44.6-----
1205 9:48 amNNW 18 22----30.01- 44.8-----
1205 9:42 amNNW 18 24----30.01- 44.6-----
1205 9:36 amNNW 15 21----30.01- 44.6-----
1205 9:30 amNNW 15 18----30.01- 44.6-----
1205 9:24 amNNW 15 19----30.01- 44.2-----
1205 9:18 am NW 14 19----30.01- 44.2-----
1205 9:12 amNNW 15 19----30.01- 44.4-----
1205 9:06 am NW 17 19----30.00- 44.1-----
1205 9:00 am NW 17 24----30.00+0.13 44.1-----
1205 8:54 am NW 15 19----29.99- 44.2-----
1205 8:48 am NW 20 23----29.99- 44.1-----
1205 8:42 am NW 18 22----29.99- 44.4-----
1205 8:36 am NW 17 20----29.98- 44.4-----
1205 8:30 am NW 15 18----29.98- 44.4-----
1205 8:24 am NW 15 19----29.98- 44.2-----
1205 8:12 am NW 16 19----29.98- 43.9-----
1205 8:06 am NW 14 17----29.97- 44.1-----
1205 8:00 am NW 14 17----29.96+0.14 43.7-----
1205 7:54 am NW 14 16----29.96- 43.7-----
1205 7:48 am NW 13 16----29.95- 43.7-----
1205 7:42 am NW 14 16----29.94- 43.7-----
1205 7:36 am NW 16 20----29.94- 43.7-----
1205 7:30 amWNW 15 17----29.94- 43.7-----
1205 7:24 amWNW 16 19----29.93- 44.1-----
1205 7:18 amWNW 16 20----29.93- 43.9-----
1205 7:12 amWNW 13 15----29.92- 43.9-----
1205 7:06 amWNW 14 15----29.91- 43.7-----
1205 7:00 amWNW 13 16----29.91+0.12 43.5-----
1205 6:54 amWNW 15 17----29.91- 43.5-----
1205 6:48 amWNW 14 17----29.91- 43.7-----
1205 6:42 amWNW 15 18----29.90- 43.9-----
1205 6:36 amWNW 15 17----29.89- 43.5-----
1205 6:30 amWNW 16 18----29.89- 43.7-----
1205 6:24 amWNW 15 17----29.88- 43.7-----
1205 6:18 amWNW 15 18----29.88- 43.9-----
1205 6:12 amWNW 14 17----29.88- 44.1-----
1205 6:06 amWNW 14 17----29.87- 44.1-----
1205 6:00 amWNW 14 17----29.86+0.13 44.1-----
1205 5:54 amWNW 13 15----29.86- 43.9-----
1205 5:48 amWNW 12 15----29.86- 43.7-----
1205 5:42 am NW 12 14----29.86- 43.9-----
1205 5:36 am NW 12 13----29.85- 44.1-----
1205 5:30 am NW 13 15----29.85- 44.2-----
1205 5:24 am NW 15 16----29.84- 44.2-----
1205 5:18 am NW 15 19----29.83- 44.6-----
1205 5:06 am NW 16 19----29.83- 44.6-----
1205 5:00 am NW 13 16----29.82+0.12 44.6-----
1205 4:54 am NW 13 15----29.82- 44.6-----
1205 4:48 am NW 15 19----29.82- 44.8-----
1205 4:42 am NW 13 16----29.82- 44.8-----
1205 4:36 am NW 13 15----29.81- 44.2-----
1205 4:30 am NW 12 15----29.81- 44.1-----
1205 4:24 am NW 13 15----29.80- 44.4-----
1205 4:18 am NW 13 15----29.80- 44.8-----
1205 4:12 am NW 13 15----29.80- 44.8-----
1205 4:06 am NW 13 15----29.80- 44.8-----
1205 4:00 am NW 14 16----29.80+0.12 45.0-----
1205 3:54 am NW 15 18----29.79- 45.3-----
1205 3:48 am NW 16 18----29.79- 45.5-----
1205 3:42 am NW 16 20----29.78- 45.7-----
1205 3:36 am NW 15 18----29.78- 45.9-----
1205 3:30 am NW 17 20----29.77- 46.2-----
1205 3:24 amWNW 16 20----29.77- 46.2-----
1205 3:18 amWNW 15 18----29.75- 46.8-----
1205 3:12 amWNW 16 19----29.75- 47.1-----
1205 3:06 amWNW 15 18----29.74- 47.1-----
1205 3:00 amWNW 17 22----29.74+0.06 47.5-----
1205 2:54 amWNW 15 19----29.73- 47.1-----
1205 2:48 am W 16 18----29.73- 46.9-----
1205 2:42 am W 17 19----29.73- 46.9-----
1205 2:36 am W 17 19----29.72- 47.1-----
1205 2:30 am W 16 18----29.72- 47.1-----
1205 2:24 am W 16 18----29.72- 46.9-----
1205 2:18 am W 15 17----29.71- 46.8-----
1205 2:12 am W 16 19----29.71- 46.9-----
1205 2:06 am W 17 19----29.71- 47.1-----
1205 2:00 am W 17 19----29.70+0.03 47.1-----
1205 1:54 am W 17 19----29.70- 47.3-----
1205 1:48 am W 15 18----29.70- 47.1-----
1205 1:42 am W 17 19----29.69- 47.1-----
1205 1:36 am W 17 19----29.69- 47.1-----
1205 1:30 am W 17 20----29.69- 47.1-----
1205 1:24 am W 16 19----29.68- 47.1-----
1205 1:18 am W 17 19----29.68- 47.3-----
1205 1:12 am W 14 17----29.68- 47.3-----
1205 1:06 am W 16 19----29.68- 47.5-----
1205 1:00 am W 16 18----29.67+0.00 47.5-----
120512:54 am W 15 17----29.67- 47.5-----
120512:48 am W 14 17----29.67- 47.5-----
120512:42 am W 14 16----29.67- 47.5-----
120512:36 am W 14 17----29.67- 47.7-----
120512:30 am W 14 16----29.68- 47.8-----
120512:24 am W 14 16----29.68- 48.0-----
120512:18 am W 14 16----29.68- 48.0-----
120512:12 am W 13 15----29.68- 48.0-----
120512:06 am W 15 16----29.68- 47.8-----
120512:00 am W 15 17----29.68+0.01 48.0-----
120411:54 pm W 14 15----29.68- 48.2-----
120411:48 pm W 14 15----29.69- 48.6-----
120411:42 pm W 15 18----29.68- 48.7-----
120411:36 pm W 14 16----29.68- 48.7-----
120411:30 pm W 15 17----29.68- 48.7-----
120411:24 pm W 15 18----29.68- 48.6-----
120411:18 pm W 16 18----29.68- 48.6-----
120411:12 pm W 15 17----29.68- 48.6-----
120411:06 pm W 16 18----29.67- 48.7-----
120411:00 pm W 17 19----29.67+0.02 48.9-----
120410:54 pm W 16 18----29.67- 48.9-----
120410:48 pm W 14 16----29.67- 48.9-----
120410:42 pm W 14 16----29.67- 49.1-----
120410:36 pm W 14 16----29.67- 49.1-----
120410:30 pm W 15 17----29.68- 48.9-----
120410:24 pm W 13 16----29.68- 48.7-----
120410:18 pm W 14 16----29.68- 48.7-----
120410:12 pm W 13 15----29.68- 48.6-----
120410:06 pm W 13 14----29.67- 48.6-----
120410:00 pm W 12 14----29.67+0.03 48.4-----
1204 9:54 pmWNW 13 14----29.67- 48.6-----
1204 9:48 pmWNW 13 15----29.67- 48.6-----
1204 9:42 pmWNW 13 15----29.67- 48.6-----
1204 9:36 pmWNW 14 15----29.68- 48.7-----
1204 9:30 pmWNW 14 16----29.67- 48.7-----
1204 9:24 pmWNW 14 16----29.67- 48.9-----
1204 9:18 pmWNW 15 17----29.67- 49.1-----
1204 9:12 pmWNW 15 18----29.67- 49.3-----
1204 9:06 pm W 15 16----29.67- 49.3-----
1204 9:00 pmWNW 14 17----29.67+0.03 49.5-----
1204 8:54 pmWNW 13 15----29.67- 49.5-----
1204 8:48 pm W 13 15----29.66- 49.3-----
1204 8:42 pmWNW 15 17----29.66- 49.3-----
1204 8:36 pm W 14 16----29.66- 48.9-----
1204 8:30 pm W 14 16----29.66- 49.1-----
1204 8:24 pm W 15 17----29.66- 49.1-----
1204 8:18 pm W 15 17----29.66- 49.3-----
1204 8:12 pm W 15 17----29.65- 49.3-----
1204 8:06 pm W 15 17----29.65- 49.1-----
1204 8:00 pm W 15 17----29.65+0.04 49.1-----
1204 7:54 pm W 15 17----29.65- 48.9-----
1204 7:48 pm W 15 17----29.65- 49.1-----
1204 7:42 pm W 15 17----29.65- 49.1-----
1204 7:36 pm W 15 17----29.65- 49.1-----
1204 7:30 pm W 13 15----29.65- 48.9-----
1204 7:24 pm W 12 14----29.65- 48.9-----
1204 7:18 pmWSW 12 14----29.65- 48.6-----
1204 7:12 pmWSW 11 13----29.65- 48.6-----
1204 7:06 pmWSW 12 13----29.65- 48.6-----
1204 7:00 pmWSW 10 13----29.65+0.05 48.6-----
1204 6:54 pmWSW 10 12----29.65- 48.6-----
1204 6:48 pmWSW 9 11----29.65- 48.6-----
1204 6:42 pmWSW 8 9----29.65- 48.6-----
1204 6:36 pmWSW 8 10----29.64- 48.6-----
1204 6:30 pmWSW 8 9----29.64- 48.7-----
1204 6:24 pmWSW 8 9----29.64- 48.7-----
1204 6:00 pmWSW 9 11----29.63+0.05 48.9-----
1204 5:54 pm W 8 9----29.63- 48.9-----

Description of Measurements

Links which are specific to this station are listed below:

Real Time Data in tabular form for the last forty-five days.

Historical Data & Climatic Summaries for quality controlled data for the current month, previous months, and previous years.